Find Starlink 33883

NORAD ID: 63781 Int'l Des: 2025-091 Owner: SPXS Country: US Constellation: starlink operational
LEOCIRCULAR

現在のビュー

3D地球を読み込み中...

About Starlink 33883

Starlink 33883 (NORAD 63781) is a starlink constellation satellite (v2 mini) launched May 2, 2025 by SPXS of US. It operates in LEO, CIRCULAR orbit with a mass of 575.00 kg.

Starlink 33883について

説明を読み込み中...

次回通過

Passes for default location (London). Set your location on the main map for personalized predictions.

高度履歴

Loading altitude history...

軌道要素

1 63781U 25091G 26170.12899119 .00019126 00000-0 70251-3 0 9995
2 63781 42.9976 199.8556 0000465 217.1427 142.9392 15.27590510 64416
Epoch: Jun 19, 2026 • Age: 27 hours

現在のステータス

高度 482.5 km
速度 7.63 km/s
衛星直下点 23.21°N, 18.33°W
打ち上げ日 May 2, 2025
運用期間 1.1 years
タイプ internet

技術仕様

分類 Payload
質量 575.00 kg
乾燥質量 530.00 kg
総質量 575.00 kg
長さ 0.30 m
直径 4.10 m
スパン 29.00 m
形状 Box + pan
製造者 SPXS
バスタイプ Starlink V2MO
フェーズステータス In Orbit
所有者/国 SPXS/US

Most Searched